H1 CPF 2 NER 2021 3 6 9 065 01 glonass133 H2 1403201 9133 40001 2021 3 6 0 0 0 2021 3 9 23 45 0 900 1 1 0 0 0 1 H9 10 0 59279 0.00000 0 -5539704.734 -14818185.178 20020291.250 10 0 59279 900.00000 0 -3439712.922 -13346822.712 21472056.455 10 0 59279 1800.00000 0 -1100187.917 -11965336.774 22507162.144 10 0 59279 2700.00000 0 1428443.456 -10722770.516 23105470.959 10 0 59279 3600.00000 0 4087046.153 -9658865.176 23255307.810 10 0 59279 4500.00000 0 6809994.827 -8802460.725 22953690.019 10 0 59279 5400.00000 0 9527669.856 -8170370.315 22206390.617 10 0 59279 6300.00000 0 12169129.197 -7766775.628 21027833.137 10 0 59279 7200.00000 0 14664845.919 -7583168.357 19440819.384 10 0 59279 8100.00000 0 16949398.457 -7598840.258 17476094.702 10 0 59279 9000.00000 0 18964002.141 -7781901.265 15171758.271 10 0 59279 9900.00000 0 20658776.707 -8090782.905 12572529.147 10 0 59279 10800.00000 0 21994655.241 -8476163.705 9728881.518 10 0 59279 11700.00000 0 22944854.680 -8883235.198 6696065.499 10 0 59279 12600.00000 0 23495846.077 -9254212.518 3533032.354 10 0 59279 13500.00000 0 23647783.888 -9530982.858 301285.111 10 0 59279 14400.00000 0 23414376.225 -9657778.925 -2936322.656 10 0 59279 15300.00000 0 22822201.697 -9583763.249 -6116815.782 10 0 59279 16200.00000 0 21909502.011 -9265412.789 -9178329.468 10 0 59279 17100.00000 0 20724501.706 -8668601.685 -12061319.426 10 0 59279 18000.00000 0 19323326.545 -7770292.888 -14709725.720 10 0 59279 18900.00000 0 17767608.987 -6559766.024 -17072067.041 10 0 59279 19800.00000 0 16121882.267 -5039328.612 -19102443.716 10 0 59279 20700.00000 0 14450873.360 -3224479.784 -20761429.710 10 0 59279 21600.00000 0 12816808.944 -1143518.790 -22016836.467 10 0 59279 22500.00000 0 11276847.597 1163386.023 -22844334.142 10 0 59279 23400.00000 0 9880745.765 3645629.366 -23227918.666 10 0 59279 24300.00000 0 8668854.740 6244043.044 -23160216.299 10 0 59279 25200.00000 0 7670531.748 8893134.303 -22642620.384 10 0 59279 26100.00000 0 6903030.631 11523595.723 -21685258.276 10 0 59279 27000.00000 0 6370917.347 14064982.811 -20306789.532 10 0 59279 27900.00000 0 6066033.457 16448448.556 -18534039.543 10 0 59279 28800.00000 0 5968007.918 18609421.772 -16401475.867 10 0 59279 29700.00000 0 6045294.446 20490118.466 -13950537.366 10 0 59279 30600.00000 0 6256689.870 22041782.443 -11228829.018 10 0 59279 31500.00000 0 6553268.722 23226562.350 -8289197.892 10 0 59279 32400.00000 0 6880651.899 24018947.661 -5188708.037 10 0 59279 33300.00000 0 7181513.222 24406704.327 -1987533.998 10 0 59279 34200.00000 0 7398217.741 24391271.645 1252205.526 10 0 59279 35100.00000 0 7475480.067 23987604.415 4467651.329 10 0 59279 36000.00000 0 7362930.204 23223467.622 7596421.257 10 0 59279 36900.00000 0 7017478.218 22138213.685 10577817.987 10 0 59279 37800.00000 0 6405377.585 20781093.961 13354003.656 10 0 59279 38700.00000 0 5503899.643 19209175.495 15871118.696 10 0 59279 39600.00000 0 4302547.986 17484950.429 18080323.324 10 0 59279 40500.00000 0 2803760.807 15673738.101 19938741.865 10 0 59279 41400.00000 0 1023070.548 13840988.302 21410292.012 10 0 59279 42300.00000 0 -1011287.083 12049598.125 22466383.326 10 0 59279 43200.00000 0 -3259299.930 10357354.081 23086471.870 10 0 59279 44100.00000 0 -5670604.925 8814605.742 23258460.497 10 0 59279 45000.00000 0 -8186354.499 7462267.605 22978937.119 10 0 59279 45900.00000 0 -10741447.725 6330232.057 22253246.246 10 0 59279 46800.00000 0 -13267034.747 5436259.324 21095392.028 10 0 59279 47700.00000 0 -15693191.440 4785390.475 19527774.102 10 0 59279 48600.00000 0 -17951653.886 4369907.741 17580760.644 10 0 59279 49500.00000 0 -19978499.394 4169843.607 15292106.026 10 0 59279 50400.00000 0 -21716662.507 4154017.109 12706223.581 10 0 59279 51300.00000 0 -23118180.963 4281553.480 9873326.920 10 0 59279 52200.00000 0 -24146077.524 4503822.835 6848455.904 10 0 59279 53100.00000 0 -24775798.474 4766715.601 3690406.081 10 0 59279 54000.00000 0 -24996148.105 5013157.917 460582.467 10 0 59279 54900.00000 0 -24809679.680 5185759.771 -2778199.667 10 0 59279 55800.00000 0 -24232526.208 5229482.795 -5962942.928 10 0 59279 56700.00000 0 -23293678.277 5094213.618 -9031700.159 10 0 59279 57600.00000 0 -22033739.511 4737132.621 -11924786.172 10 0 59279 58500.00000 0 -20503212.561 4124776.624 -14585944.365 10 0 59279 59400.00000 0 -18760388.259 3234707.175 -16963444.877 10 0 59279 60300.00000 0 -16868927.347 2056712.834 -19011092.497 10 0 59279 61200.00000 0 -14895236.922 593493.875 -20689124.502 10 0 59279 62100.00000 0 -12905752.130 -1139200.279 -21964981.141 10 0 59279 63000.00000 0 -10964237.174 -3112987.450 -22813934.177 10 0 59279 63900.00000 0 -9129218.594 -5287806.038 -23219561.789 10 0 59279 64800.00000 0 -7451657.709 -7613366.048 -23174061.307 10 0 59279 65700.00000 0 -5972958.736 -10031037.761 -22678394.372 10 0 59279 66600.00000 0 -4723394.840 -12476099.723 -21742262.255 10 0 59279 67500.00000 0 -3721016.573 -14880252.924 -20383912.330 10 0 59279 68400.00000 0 -2971086.912 -17174296.998 -18629779.672 10 0 59279 69300.00000 0 -2466065.074 -19290857.439 -16513970.929 10 0 59279 70200.00000 0 -2186138.302 -21167050.816 -14077600.414 10 0 59279 71100.00000 0 -2100277.940 -22746977.449 -11367991.155 10 0 59279 72000.00000 0 -2167774.248 -23983938.034 -8437756.297 10 0 59279 72900.00000 0 -2340184.344 -24842282.226 -5343778.473 10 0 59279 73800.00000 0 -2563610.378 -25298812.426 -2146106.794 10 0 59279 74700.00000 0 -2781211.248 -25343684.481 1093207.113 10 0 59279 75600.00000 0 -2935841.330 -24980768.045 4311311.490 10 0 59279 76500.00000 0 -2972704.399 -24227451.899 7445771.926 10 0 59279 77400.00000 0 -2841910.344 -23113902.665 10435780.178 10 0 59279 78300.00000 0 -2500826.364 -21681808.231 13223330.991 10 0 59279 79200.00000 0 -1916123.032 -19982658.591 15754344.186 10 0 59279 80100.00000 0 -1065428.429 -18075636.083 17979710.427 10 0 59279 81000.00000 0 61479.971 -16025203.081 19856240.751 10 0 59279 81900.00000 0 1461996.746 -13898487.666 21347501.869 10 0 59279 82800.00000 0 3120552.876 -11762575.996 22424521.426 10 0 59279 83700.00000 0 5009030.035 -9681823.853 23066349.981 10 0 59279 84600.00000 0 7087709.048 -7715298.747 23260469.098 10 0 59279 85500.00000 0 9306714.435 -5914458.693 23003037.726 10 0 59280 0.00000 0 11607896.352 -4321163.645 22298972.018 10 0 59280 900.00000 0 13927073.187 -2966102.128 21161856.528 10 0 59280 1800.00000 0 16196542.168 -1867697.542 19613688.329 10 0 59280 2700.00000 0 18347754.789 -1031540.671 17684457.726 10 0 59280 3600.00000 0 20314046.103 -450370.071 15411573.302 10 0 59280 4500.00000 0 22033304.099 -104602.050 12839141.426 10 0 59280 5400.00000 0 23450467.804 36613.044 10017113.575 10 0 59280 6300.00000 0 24519749.283 13852.983 7000317.479 10 0 59280 7200.00000 0 25206485.925 -124530.353 3847390.777 10 0 59280 8100.00000 0 25488544.781 -324697.923 619637.970 10 0 59280 9000.00000 0 25357219.371 -529845.882 -2620166.727 10 0 59280 9900.00000 0 24817580.806 -682855.638 -5809006.612 10 0 59280 10800.00000 0 23888268.151 -728958.275 -8884855.152 10 0 59280 11700.00000 0 22600726.749 -618299.343 -11787889.215 10 0 59280 12600.00000 0 20997926.704 -308294.287 -14461658.363 10 0 59280 13500.00000 0 19132615.667 234326.286 -16854186.831 10 0 59280 14400.00000 0 17065179.746 1031868.984 -18918986.288 10 0 59280 15300.00000 0 14861202.768 2094498.090 -20615959.500 10 0 59280 16200.00000 0 12588826.525 3419574.619 -21912177.438 10 0 59280 17100.00000 0 10316022.686 4991542.494 -22782515.117 10 0 59280 18000.00000 0 8107890.444 6782367.179 -23210134.310 10 0 59280 18900.00000 0 6024092.389 8752508.922 -23186804.444 10 0 59280 19800.00000 0 4116534.914 10852390.416 -22713056.105 10 0 59280 20700.00000 0 2427389.081 13024297.934 -21798164.749 10 0 59280 21600.00000 0 987533.150 15204637.067 -20459965.419 10 0 59280 22500.00000 0 -184519.619 17326449.389 -18724502.323 10 0 59280 23400.00000 0 -1083164.657 19322085.468 -16625520.235 10 0 59280 24300.00000 0 -1715700.190 21125923.155 -14203807.561 10 0 59280 25200.00000 0 -2101773.572 22677018.115 -11506403.651 10 0 59280 26100.00000 0 -2272304.513 23921576.219 -8585685.642 10 0 59280 27000.00000 0 -2267931.757 24815144.858 -5498352.356 10 0 59280 27900.00000 0 -2137049.692 25324431.790 -2304324.800 10 0 59280 28800.00000 0 -1933518.451 25428675.628 934415.361 10 0 59280 29700.00000 0 -1714144.858 25120510.802 4155026.870 10 0 59280 30600.00000 0 -1536041.018 24406290.892 7295026.188 10 0 59280 31500.00000 0 -1453972.510 23305856.872 10293497.305 10 0 59280 32400.00000 0 -1517808.493 21851760.004 13092270.660 10 0 59280 33300.00000 0 -1770181.661 20087971.803 15637048.446 10 0 59280 34200.00000 0 -2244457.120 18068134.880 17878454.598 10 0 59280 35100.00000 0 -2963096.261 15853427.459 19772989.490 10 0 59280 36000.00000 0 -3936485.171 13510130.279 21283871.229 10 0 59280 36900.00000 0 -5162277.656 11106996.854 22381747.631 10 0 59280 37800.00000 0 -6625281.544 8712536.040 23045265.493 10 0 59280 38700.00000 0 -8297894.359 6392319.301 23261486.427 10 0 59280 39600.00000 0 -10141071.521 4206424.093 23026141.286 10 0 59280 40500.00000 0 -12105788.123 2207118.965 22343718.161 10 0 59280 41400.00000 0 -14134934.736 436886.028 21227381.890 10 0 59280 42300.00000 0 -16165569.363 -1073137.416 19698726.102 10 0 59280 43200.00000 0 -18131432.657 -2304233.750 17787361.849 10 0 59280 44100.00000 0 -19965622.171 -3250652.059 15530349.973 10 0 59280 45000.00000 0 -21603314.244 -3919604.880 12971487.431 10 0 59280 45900.00000 0 -22984419.765 -4330715.351 10160460.718 10 0 59280 46800.00000 0 -24056062.322 -4514938.564 7151882.274 10 0 59280 47700.00000 0 -24774774.256 -4513003.114 4004228.469 10 0 59280 48600.00000 0 -25108317.736 -4373439.338 778699.822 10 0 59280 49500.00000 0 -25037053.554 -4150278.406 -2461974.009 10 0 59280 50400.00000 0 -24554799.286 -3900520.520 -5654760.491 10 0 59280 51300.00000 0 -23669140.141 -3681480.487 -8737557.119 10 0 59280 52200.00000 0 -22401178.913 -3548124.186 -11650406.107 10 0 59280 53100.00000 0 -20784735.385 -3550509.805 -14336666.294 10 0 59280 54000.00000 0 -18865028.797 -3731443.232 -16744118.852 10 0 59280 54900.00000 0 -16696898.810 -4124447.696 -18825984.837 10 0 59280 55800.00000 0 -14342639.877 -4752134.260 -20541834.546 10 0 59280 56700.00000 0 -11869539.910 -5625042.563 -21858371.166 10 0 59280 57600.00000 0 -9347226.305 -6741001.256 -22750073.838 10 0 59280 58500.00000 0 -6844930.174 -8085035.435 -23199688.156 10 0 59280 59400.00000 0 -4428782.624 -9629825.370 -23198555.234 10 0 59280 60300.00000 0 -2159255.153 -11336697.675 -22746773.625 10 0 59280 61200.00000 0 -88850.037 -13157107.721 -21853191.477 10 0 59280 62100.00000 0 1739864.259 -15034551.610 -20535229.607 10 0 59280 63000.00000 0 3295792.183 -16906828.166 -18818539.129 10 0 59280 63900.00000 0 4560361.959 -18708556.651 -16736500.495 10 0 59280 64800.00000 0 5528046.064 -20373845.358 -14329573.591 10 0 59280 65700.00000 0 6206331.178 -21838999.798 -11644511.396 10 0 59280 66600.00000 0 6615140.453 -23045157.418 -8733452.326 10 0 59280 67500.00000 0 6785733.839 -23940738.805 -5652908.694 10 0 59280 68400.00000 0 6759133.986 -24483612.886 -2462670.776 10 0 59280 69300.00000 0 6584145.044 -24642885.414 775352.256 10 0 59280 70200.00000 0 6315048.757 -24400235.866 3998332.063 10 0 59280 71100.00000 0 6009075.723 -23750746.579 7143738.266 10 0 59280 72000.00000 0 5723758.983 -22703189.297 10150549.223 10 0 59280 72900.00000 0 5514282.060 -21279756.900 12960433.061 10 0 59280 73800.00000 0 5430933.621 -19515251.225 15518876.150 10 0 59280 74700.00000 0 5516776.364 -17455760.628 17776237.294 10 0 59280 75600.00000 0 5805628.702 -15156882.010 19688707.558 10 0 59280 76500.00000 0 6320444.595 -12681560.889 21219157.523 10 0 59280 77400.00000 0 7072160.255 -10097638.935 22337855.951 10 0 59280 78300.00000 0 8059056.896 -7475210.243 23023046.334 10 0 59280 79200.00000 0 9266667.284 -4883895.503 23261370.480 10 0 59280 80100.00000 0 10668231.100 -2390146.578 23048130.989 10 0 59280 81000.00000 0 12225681.362 -54692.689 22387387.485 10 0 59280 81900.00000 0 13891121.986 2069766.470 21291884.377 10 0 59280 82800.00000 0 15608735.907 3940525.367 19782811.010 10 0 59280 83700.00000 0 17317045.096 5526413.887 17889398.114 10 0 59280 84600.00000 0 18951428.786 6808851.567 15648357.561 10 0 59280 85500.00000 0 20446794.971 7782371.212 13103175.492 10 0 59281 0.00000 0 21740293.454 8454590.598 10303271.892 10 0 59281 900.00000 0 22773956.274 8845633.909 7303042.006 10 0 59281 1800.00000 0 23497154.810 8987028.120 4160799.008 10 0 59281 2700.00000 0 23868768.160 8920121.028 937637.248 10 0 59281 3600.00000 0 23858972.371 8694089.164 -2303760.515 10 0 59281 4500.00000 0 23450572.966 8363620.234 -5500348.376 10 0 59281 5400.00000 0 22639824.420 7986369.374 -8589950.353 10 0 59281 6300.00000 0 21436701.121 7620297.914 -11512476.465 10 0 59281 7200.00000 0 19864607.915 7321008.386 -14211097.188 10 0 59281 8100.00000 0 17959542.024 7139189.530 -16633352.859 10 0 59281 9000.00000 0 15768741.321 7118280.298 -18732175.966 10 0 59281 9900.00000 0 13348875.675 7292452.233 -20466806.207 10 0 59281 10800.00000 0 10763857.060 7684996.003 -21803580.674 10 0 59281 11700.00000 0 8082359.979 8307180.452 -22716584.146 10 0 59281 12600.00000 0 5375155.669 9157632.518 -23188147.330 10 0 59281 13500.00000 0 2712370.922 10222264.208 -23209184.083 10 0 59281 14400.00000 0 160785.166 11474749.894 -22779361.648 10 0 59281 15300.00000 0 -2218722.362 12877533.955 -21907101.245 10 0 59281 16200.00000 0 -4373470.161 14383326.708 -20609409.421 10 0 59281 17100.00000 0 -6260922.366 15937026.129 -18911543.732 10 0 59281 18000.00000 0 -7850207.217 17477985.031 -16846519.409 10 0 59281 18900.00000 0 -9123144.381 18942528.971 -14454466.538 10 0 59281 19800.00000 0 -10074739.891 20266619.624 -11781850.079 10 0 59281 20700.00000 0 -10713129.525 21388552.124 -8880567.775 10 0 59281 21600.00000 0 -11058974.626 22251573.429 -5806943.230 10 0 59281 22500.00000 0 -11144337.093 22806311.933 -2620633.575 10 0 59281 23400.00000 0 -11011082.063 23012916.293 616527.089 10 0 59281 24300.00000 0 -10708876.566 22842813.644 3841726.050 10 0 59281 25200.00000 0 -10292869.293 22280013.157 6992388.883 10 0 59281 26100.00000 0 -9821149.927 21321899.981 10007391.176 10 0 59281 27000.00000 0 -9352095.609 19979485.886 12828241.598 10 0 59281 27900.00000 0 -8941716.771 18277105.596 15400213.531 10 0 59281 28800.00000 0 -8641114.385 16251570.972 17673403.404 10 0 59281 29700.00000 0 -8494155.940 13950817.684 19603695.601 10 0 59281 30600.00000 0 -8535468.156 11432100.049 21153615.632 10 0 59281 31500.00000 0 -8788831.120 8759808.429 22293055.419 10 0 59281 32400.00000 0 -9266041.745 6002999.093 22999857.069 10 0 59281 33300.00000 0 -9966294.842 3232738.224 23260244.137 10 0 59281 34200.00000 0 -10876108.562 519369.529 23069092.094 10 0 59281 35100.00000 0 -11969798.260 -2070182.054 22430032.741 10 0 59281 36000.00000 0 -13210480.011 -4474959.454 21355390.159 10 0 59281 36900.00000 0 -14551562.799 -6642270.159 19865948.943 10 0 59281 37800.00000 0 -15938667.890 -8529635.688 17990558.475 10 0 59281 38700.00000 0 -17311895.811 -10106313.275 15765580.079 10 0 59281 39600.00000 0 -18608346.408 -11354326.701 13234186.998 10 0 59281 40500.00000 0 -19764786.499 -12268963.735 10445530.068 10 0 59281 41400.00000 0 -20720352.983 -12858719.862 7453784.720 10 0 59281 42300.00000 0 -21419177.235 -13144691.133 4317097.670 10 0 59281 43200.00000 0 -21812819.698 -13159442.417 1096453.777 10 0 59281 44100.00000 0 -21862411.128 -12945399.480 -2145514.550 10 0 59281 45000.00000 0 -21540409.230 -12552833.645 -5345751.539 10 0 59281 45900.00000 0 -20831895.609 -12037525.184 -8442011.268 10 0 59281 46800.00000 0 -19735357.343 -11458205.307 -11374075.043 10 0 59281 47700.00000 0 -18262919.456 -10873885.965 -14084928.368 10 0 59281 48600.00000 0 -16440017.834 -10341191.401 -16521873.932 10 0 59281 49500.00000 0 -14304525.790 -9911805.084 -18637558.546 10 0 59281 50400.00000 0 -11905370.661 -9630140.562 -20390893.795 10 0 59281 51300.00000 0 -9300698.123 -9531334.974 -21747852.633 10 0 59281 52200.00000 0 -6555660.748 -9639650.089 -22682126.802 10 0 59281 53100.00000 0 -3739922.997 -9967348.248 -23175632.797 10 0 59281 54000.00000 0 -924986.235 -10514090.451 -23218857.182 10 0 59281 54900.00000 0 1818555.304 -11266881.740 -22811035.246 10 0 59281 55800.00000 0 4423714.097 -12200565.978 -21960160.035 10 0 59281 56700.00000 0 6829653.057 -13278849.114 -20682822.099 10 0 59281 57600.00000 0 8983968.739 -14455807.910 -19003883.304 10 0 59281 58500.00000 0 10844620.189 -15677820.756 -16955991.195 10 0 59281 59400.00000 0 12381424.509 -16885839.599 -14578943.312 10 0 59281 60300.00000 0 13577058.306 -18017907.672 -11918913.651 10 0 59281 61200.00000 0 14427524.612 -19011817.365 -9027556.166 10 0 59281 62100.00000 0 14942067.308 -19807796.620 -5961002.538 10 0 59281 63000.00000 0 15142538.048 -20351110.976 -2778773.492 10 0 59281 63900.00000 0 15062243.503 -20594471.767 457375.165 10 0 59281 64800.00000 0 14744322.540 -20500149.087 3684649.454 10 0 59281 65700.00000 0 14239722.529 -20041700.419 6840433.831 10 0 59281 66600.00000 0 13604860.729 -19205241.902 9863503.767 10 0 59281 67500.00000 0 12899069.770 -17990208.379 12695210.835 10 0 59281 68400.00000 0 12181935.210 -16409569.685 15280617.423 10 0 59281 69300.00000 0 11510637.465 -14489493.399 17569559.197 10 0 59281 70200.00000 0 10937410.106 -12268467.295 19517615.079 10 0 59281 71100.00000 0 10507221.440 -9795917.106 21086966.317 10 0 59281 72000.00000 0 10255776.907 -7130376.265 22247128.411 10 0 59281 72900.00000 0 10207926.262 -4337282.630 22975542.105 10 0 59281 73800.00000 0 10376542.654 -1486492.650 23258012.358 10 0 59281 74700.00000 0 10761920.995 1350384.812 23088986.838 10 0 59281 75600.00000 0 11351721.384 4102725.439 22471668.537 10 0 59281 76500.00000 0 12121460.678 6703584.552 21417959.982 10 0 59281 77400.00000 0 13035532.351 9092239.200 19948239.583 10 0 59281 78300.00000 0 14048712.680 11216472.321 18090973.765 10 0 59281 79200.00000 0 15108090.761 13034504.520 15882171.563 10 0 59281 80100.00000 0 16155341.839 14516493.342 13364691.459 10 0 59281 81000.00000 0 17129248.692 15645537.852 10587413.236 10 0 59281 81900.00000 0 17968364.973 16418146.893 7604290.316 10 0 59281 82800.00000 0 18613707.981 16844151.729 4473300.854 10 0 59281 83700.00000 0 19011366.753 16946067.316 1255317.978 10 0 59281 84600.00000 0 19114914.553 16757929.685 -1987078.540 10 0 59281 85500.00000 0 18887522.902 16323659.224 -5190825.345 10 0 59282 0.00000 0 18303686.874 15695019.804 -8293608.728 10 0 59282 900.00000 0 17350487.253 14929261.042 -11235083.526 10 0 59282 1800.00000 0 16028336.621 14086543.967 -13958052.176 10 0 59282 2700.00000 0 14351174.856 13227260.485 -16409581.504 10 0 59282 3600.00000 0 12346107.262 12409359.891 -18542034.265 10 0 59282 4500.00000 0 10052498.468 11685796.519 -20313995.375 10 0 59282 5400.00000 0 7520560.255 11102206.306 -21691074.944 10 0 59282 6300.00000 0 4809491.721 10694910.413 -22646572.825 10 0 59282 7200.00000 0 1985249.229 10489329.845 -23161992.259 10 0 59282 8100.00000 0 -881961.331 10498877.494 -23227393.289 10 0 59282 9000.00000 0 -3720366.093 10724373.728 -22841579.714 10 0 59282 9900.00000 0 -6459367.528 11154009.599 -22012116.540 10 0 59282 10800.00000 0 -9032238.263 11763858.713 -20755178.057 10 0 59282 11700.00000 0 -11378653.332 12518915.826 -19095229.748 10 0 59282 12600.00000 0 -13446956.552 13374618.161 -17064550.376 10 0 59282 13500.00000 0 -15196067.940 14278785.300 -14702603.479 10 0 59282 14400.00000 0 -16596953.956 15173895.911 -12055270.333 10 0 59282 15300.00000 0 -17633600.549 15999605.476 -9173959.129 10 0 59282 16200.00000 0 -18303449.674 16695398.997 -6114607.495 10 0 59282 17100.00000 0 -18617282.360 17203266.947 -2936597.524 10 0 59282 18000.00000 0 -18598554.394 17470291.647 298395.575 10 0 59282 18900.00000 0 -18282213.644 17451034.978 3527598.926 10 0 59282 19800.00000 0 -17713049.687 17109626.575 6688358.287 10 0 59282 20700.00000 0 -16943645.870 16421464.234 9719351.495 10 0 59282 21600.00000 0 -16032020.613 15374454.489 12561775.535 10 0 59282 22500.00000 0 -15039057.511 13969740.524 15160484.330 10 0 59282 23400.00000 0 -14025832.610 12221886.116 17465055.283 10 0 59282 24300.00000 0 -13050951.245 10158506.870 19430764.258 10 0 59282 25200.00000 0 -12168006.283 7819363.073 21019450.505 10 0 59282 26100.00000 0 -11423264.401 5254950.802 22200255.133 10 0 59282 27000.00000 0 -10853677.313 2524648.720 22950219.293 10 0 59282 27900.00000 0 -10485301.308 -305503.751 23254730.771 10 0 59282 28800.00000 0 -10332191.339 -3165305.719 23107810.473 10 0 59282 29700.00000 0 -10395816.209 -5983069.085 22512233.204 10 0 59282 30600.00000 0 -10665019.605 -8688357.865 21479480.091 10 0 59282 31500.00000 0 -11116529.078 -11214679.664 20029523.043 10 0 59282 32400.00000 0 -11715992.045 -13502018.293 18190444.734 10 0 59282 33300.00000 0 -12419495.835 -15499102.743 15997900.643 10 0 59282 34200.00000 0 -13175508.254 -17165318.331 13494432.810 10 0 59282 35100.00000 0 -13927157.259 -18472180.597 10728647.892 10 0 59282 36000.00000 0 -14614753.732 -19404310.561 7754274.915 10 0 59282 36900.00000 0 -15178450.669 -19959870.644 4629120.825 10 0 59282 37800.00000 0 -15560926.025 -20150443.303 1413944.168 10 0 59282 38700.00000 0 -15709975.058 -20000357.903 -1828730.932 10 0 59282 39600.00000 0 -15580901.636 -19545494.685 -5035836.684 10 0 59282 40500.00000 0 -15138606.308 -18831617.021 -8144994.967 10 0 59282 41400.00000 0 -14359281.694 -17912303.154 -11095737.217 10 0 59282 42300.00000 0 -13231642.530 -16846565.593 -13830686.227 10 0 59282 43200.00000 0 -11757637.337 -15696259.590 -16296676.226 10 0 59282 44100.00000 0 -9952610.847 -14523390.797 -18445788.973 10 0 59282 45000.00000 0 -7844909.518 -13387436.310 -20236285.486 10 0 59282 45900.00000 0 -5474946.022 -12342792.327 -21633415.384 10 0 59282 46800.00000 0 -2893761.262 -11436456.001 -22610088.464 10 0 59282 47700.00000 0 -161143.539 -10706038.826 -23147395.963 10 0 59282 48600.00000 0 2656617.205 -10178194.604 -23234972.011 10 0 59282 49500.00000 0 5489247.062 -9867527.407 -22871188.931 10 0 59282 50400.00000 0 8265173.527 -9776024.601 -22063183.123 10 0 59282 51300.00000 0 10914267.617 -9893037.932 -20826711.519 10 0 59282 52200.00000 0 13370529.534 -10195812.633 -19185841.654 10 0 59282 53100.00000 0 15574607.007 -10650541.609 -17172481.504 10 0 59282 54000.00000 0 17476042.552 -11213899.764 -14825758.191 10 0 59282 54900.00000 0 19035157.106 -11834993.464 -12191257.476 10 0 59282 55800.00000 0 20224492.528 -12457642.690 -9320138.651 10 0 59282 56700.00000 0 21029753.899 -13022899.509 -6268141.858 10 0 59282 57600.00000 0 21450213.337 -13471696.492 -3094506.921 10 0 59282 58500.00000 0 21498559.451 -13747513.223 139175.287 10 0 59282 59400.00000 0 21200199.786 -13798948.244 3370156.703 10 0 59282 60300.00000 0 20592046.408 -13582087.661 6535747.941 10 0 59282 61200.00000 0 19720836.385 -13062570.242 9574532.490 10 0 59282 62100.00000 0 18641058.310 -12217261.483 12427555.661 10 0 59282 63000.00000 0 17412572.390 -11035465.547 15039465.383 10 0 59282 63900.00000 0 16098024.296 -9519623.357 17359582.788 10 0 59282 64800.00000 0 14760161.399 -7685466.520 19342882.189 10 0 59282 65700.00000 0 13459163.875 -5561619.473 20950861.844 10 0 59282 66600.00000 0 12250102.405 -3188665.179 22152289.026 10 0 59282 67500.00000 0 11180628.680 -617711.936 22923805.379 10 0 59282 68400.00000 0 10288995.138 2091480.527 23250381.184 10 0 59282 69300.00000 0 9602486.599 4872739.076 23125609.842 10 0 59282 70200.00000 0 9136329.262 7655987.755 22551836.855 10 0 59282 71100.00000 0 8893122.660 10369927.887 21540120.499 10 0 59282 72000.00000 0 8862818.438 12944777.347 20110024.433 10 0 59282 72900.00000 0 9023246.959 15314956.012 18289245.592 10 0 59282 73800.00000 0 9341169.797 17421606.317 16113083.718 10 0 59282 74700.00000 0 9773814.069 19214844.186 13623762.067 10 0 59282 75600.00000 0 10270824.079 20655646.699 10869611.716 10 0 59282 76500.00000 0 10776547.978 21717297.641 7904134.745 10 0 59282 77400.00000 0 11232562.639 22386330.400 4784964.294 10 0 59282 78300.00000 0 11580329.608 22662928.740 1572741.697 10 0 59282 79200.00000 0 11763869.058 22560768.762 -1670067.155 10 0 59282 80100.00000 0 11732337.719 22106309.008 -4880392.543 10 0 59282 81000.00000 0 11442400.598 21337559.094 -7995794.220 10 0 59282 81900.00000 0 10860294.986 20302379.393 -10955682.489 10 0 59282 82800.00000 0 9963498.332 19056384.233 -13702502.359 10 0 59282 83700.00000 0 8741928.391 17660537.785 -16182857.110 10 0 59282 84600.00000 0 7198623.950 16178544.705 -18348548.935 10 0 59282 85500.00000 0 5349876.592 14674146.049 -20157516.150 99